When you browse on this site, cookies collect data to enhance your experience and personalize the content and advertising you see.
Visit our Privacy Policy to learn more. By continuing to use the site, you agree to this use of cookies and data.
  • In Latvia
  • List of Countries
  • For 7 days
  • Water Temperature
  • Weather Map
  • Weather Widgets
  • user-avatar
    Login

    Hourly Weather Galinki

    Today, 25 February, Tuesday

    Time Temperature Precipitation Wind Pressure Humidity
    00:00 0°C° 0.3 mm 4 mps 739 mmHg 87%
    01:00 0°C° 0.3 mm 4 mps 738 mmHg 92%
    02:00 0°C° 1.1 mm 5 mps 737 mmHg 92%
    03:00 0°C° 1.1 mm 5 mps 736 mmHg 93%
    04:00 0°C° 1.1 mm 5 mps 735 mmHg 94%
    05:00 +1°C° 0.2 mm 5 mps 734 mmHg 93%
    06:00 +2°C° 0.2 mm 5 mps 734 mmHg 93%
    07:00 +3°C° 0.2 mm 5 mps 733 mmHg 92%
    08:00 +4°C° 0.2 mm 6 mps 733 mmHg 90%
    09:00 +5°C° 0.2 mm 6 mps 733 mmHg 89%
    10:00 +6°C° 0.2 mm 7 mps 732 mmHg 87%
    11:00 +6°C° 0.1 mm 7 mps 732 mmHg 86%
    12:00 +7°C° 0.1 mm 6 mps 732 mmHg 85%
    13:00 +8°C° 0.1 mm 6 mps 732 mmHg 84%
    14:00 +8°C° 0.1 mm 6 mps 731 mmHg 83%
    15:00 +8°C° 0.1 mm 6 mps 731 mmHg 82%
    16:00 +8°C° 0.1 mm 6 mps 730 mmHg 81%
    17:00 +7°C° 0.1 mm 6 mps 730 mmHg 83%
    18:00 +7°C° 0.1 mm 6 mps 730 mmHg 84%
    19:00 +7°C° 0.1 mm 6 mps 730 mmHg 86%
    20:00 +7°C° 0.7 mm 6 mps 729 mmHg 87%
    21:00 +5°C° 0.7 mm 6 mps 729 mmHg 89%
    22:00 +5°C° 0.7 mm 6 mps 729 mmHg 90%
    23:00 +5°C° 0.4 mm 5 mps 729 mmHg 87%

    Tomorrow, 26 February, Wednesday

    Time Temperature Precipitation Wind Pressure Humidity
    00:00 +5°C° 0.4 mm 4 mps 729 mmHg 84%
    01:00 +5°C° 0.4 mm 2 mps 729 mmHg 81%
    02:00 +4°C° 0 mm 3 mps 729 mmHg 84%
    03:00 +3°C° 0 mm 3 mps 728 mmHg 86%
    04:00 +3°C° 0 mm 3 mps 728 mmHg 88%
    05:00 +2°C° 0 mm 3 mps 728 mmHg 88%
    06:00 +2°C° 0 mm 3 mps 728 mmHg 87%
    07:00 +2°C° 0 mm 3 mps 728 mmHg 87%
    08:00 +3°C° 0 mm 3 mps 728 mmHg 81%
    09:00 +4°C° 0 mm 3 mps 727 mmHg 76%
    10:00 +4°C° 0 mm 3 mps 727 mmHg 71%
    11:00 +5°C° 0.1 mm 4 mps 727 mmHg 69%
    12:00 +5°C° 0.1 mm 4 mps 727 mmHg 67%
    13:00 +6°C° 0.1 mm 4 mps 727 mmHg 65%
    14:00 +5°C° 0.2 mm 5 mps 727 mmHg 68%
    15:00 +3°C° 0.2 mm 6 mps 727 mmHg 71%
    16:00 +3°C° 0.2 mm 7 mps 727 mmHg 75%
    17:00 +2°C° 0 mm 6 mps 727 mmHg 74%
    18:00 +1°C° 0 mm 5 mps 727 mmHg 72%
    19:00 +1°C° 0 mm 3 mps 728 mmHg 71%
    20:00 0°C° 0 mm 4 mps 728 mmHg 72%
    21:00 0°C° 0 mm 4 mps 728 mmHg 72%
    22:00 0°C° 0 mm 4 mps 728 mmHg 72%
    23:00 -1°C° 0 mm 5 mps 728 mmHg 77%

    Day after tomorrow, 27 February, Thursday

    Time Temperature Precipitation Wind Pressure Humidity
    00:00 -1°C° 0 mm 5 mps 729 mmHg 82%
    01:00 -2°C° 0 mm 6 mps 729 mmHg 87%
    02:00 -2°C° 0.1 mm 6 mps 729 mmHg 86%
    03:00 -2°C° 0.1 mm 6 mps 729 mmHg 85%
    04:00 -1°C° 0.1 mm 5 mps 729 mmHg 84%
    05:00 -2°C° 0.1 mm 6 mps 730 mmHg 83%
    06:00 -3°C° 0.1 mm 6 mps 730 mmHg 82%
    07:00 -3°C° 0.1 mm 7 mps 731 mmHg 80%
    08:00 -3°C° 0 mm 7 mps 731 mmHg 77%
    09:00 -2°C° 0 mm 7 mps 732 mmHg 73%
    10:00 -2°C° 0 mm 8 mps 732 mmHg 70%
    11:00 -1°C° 0 mm 7 mps 732 mmHg 67%
    12:00 -1°C° 0 mm 7 mps 733 mmHg 64%
    13:00 0°C° 0 mm 7 mps 733 mmHg 60%
    14:00 0°C° 0.1 mm 7 mps 733 mmHg 68%
    15:00 -1°C° 0.1 mm 6 mps 732 mmHg 76%
    16:00 -1°C° 0.1 mm 6 mps 732 mmHg 84%
    17:00 0°C° 0 mm 5 mps 732 mmHg 84%
    18:00 -1°C° 0 mm 4 mps 732 mmHg 84%
    19:00 +1°C° 0 mm 2 mps 732 mmHg 83%
    20:00 +1°C° 0 mm 2 mps 732 mmHg 82%
    21:00 -1°C° 0 mm 2 mps 732 mmHg 81%
    22:00 -1°C° 0 mm 2 mps 732 mmHg 79%
    23:00 -1°C° 0 mm 2 mps 731 mmHg 79%

    28 February, Friday

    Time Temperature Precipitation Wind Pressure Humidity
    00:00 -1°C° 0 mm 2 mps 731 mmHg 79%
    01:00 -1°C° 0 mm 2 mps 731 mmHg 78%
    02:00 -1°C° 0 mm 2 mps 731 mmHg 81%
    03:00 +1°C° 0 mm 1 mps 731 mmHg 83%
    04:00 +1°C° 0 mm 1 mps 731 mmHg 85%
    05:00 +1°C° 0.3 mm 1 mps 731 mmHg 89%
    06:00 +1°C° 0.3 mm 1 mps 732 mmHg 93%
    07:00 +1°C° 0.3 mm 1 mps 732 mmHg 97%
    08:00 +1°C° 0.2 mm 2 mps 733 mmHg 92%
    09:00 0°C° 0.2 mm 3 mps 733 mmHg 88%
    10:00 +1°C° 0.2 mm 3 mps 734 mmHg 83%
    11:00 +1°C° 0.2 mm 4 mps 735 mmHg 76%
    12:00 +3°C° 0.2 mm 4 mps 735 mmHg 68%
    13:00 +3°C° 0.2 mm 5 mps 736 mmHg 61%
    14:00 +2°C° 0.2 mm 5 mps 736 mmHg 65%
    15:00 +1°C° 0.2 mm 6 mps 737 mmHg 69%
    16:00 +1°C° 0.2 mm 6 mps 737 mmHg 73%
    17:00 -1°C° 0 mm 6 mps 738 mmHg 73%
    18:00 -1°C° 0 mm 6 mps 738 mmHg 72%
    19:00 -1°C° 0 mm 6 mps 739 mmHg 71%
    20:00 -1°C° 0 mm 5 mps 739 mmHg 75%
    21:00 -1°C° 0 mm 4 mps 739 mmHg 79%
    22:00 -2°C° 0 mm 4 mps 740 mmHg 82%
    23:00 -2°C° 0 mm 4 mps 740 mmHg 85%

    29 February, Saturday

    Time Temperature Precipitation Wind Pressure Humidity
    00:00 -2°C° 0 mm 4 mps 740 mmHg 88%
    01:00 -2°C° 0 mm 5 mps 740 mmHg 90%
    02:00 -1°C° 0 mm 5 mps 739 mmHg 88%
    03:00 -2°C° 0 mm 6 mps 739 mmHg 86%
    04:00 -2°C° 0 mm 6 mps 739 mmHg 84%
    05:00 -2°C° 0 mm 6 mps 739 mmHg 85%
    06:00 -2°C° 0 mm 6 mps 739 mmHg 85%
    07:00 -3°C° 0 mm 6 mps 739 mmHg 86%
    08:00 -2°C° 0 mm 6 mps 739 mmHg 82%
    09:00 -1°C° 0 mm 6 mps 739 mmHg 78%
    10:00 -1°C° 0 mm 6 mps 739 mmHg 73%
    11:00 +1°C° 0 mm 5 mps 738 mmHg 69%
    12:00 +2°C° 0 mm 5 mps 738 mmHg 64%
    13:00 +4°C° 0 mm 4 mps 738 mmHg 59%
    14:00 +4°C° 0 mm 4 mps 737 mmHg 58%
    15:00 +4°C° 0 mm 3 mps 737 mmHg 57%
    16:00 +4°C° 0 mm 3 mps 736 mmHg 56%
    17:00 +3°C° 0 mm 3 mps 736 mmHg 59%
    18:00 +3°C° 0 mm 3 mps 735 mmHg 63%
    19:00 +1°C° 0 mm 4 mps 735 mmHg 66%
    20:00 +1°C° 0 mm 4 mps 734 mmHg 71%
    21:00 +1°C° 0 mm 4 mps 734 mmHg 76%
    22:00 0°C° 0 mm 4 mps 733 mmHg 81%
    23:00 +1°C° 0.4 mm 4 mps 733 mmHg 82%

    1 March, Sunday

    Time Temperature Precipitation Wind Pressure Humidity
    00:00 +1°C° 0.4 mm 5 mps 732 mmHg 84%
    01:00 +1°C° 0.4 mm 5 mps 732 mmHg 85%
    02:00 +2°C° 0.2 mm 6 mps 732 mmHg 84%
    03:00 +2°C° 0.2 mm 6 mps 732 mmHg 83%
    04:00 +3°C° 0.2 mm 7 mps 733 mmHg 82%
    05:00 +2°C° 0 mm 6 mps 733 mmHg 82%
    06:00 +2°C° 0 mm 5 mps 734 mmHg 81%
    07:00 +1°C° 0 mm 5 mps 734 mmHg 81%
    08:00 +2°C° 0 mm 5 mps 735 mmHg 76%
    09:00 +3°C° 0 mm 5 mps 735 mmHg 72%
    10:00 +3°C° 0 mm 6 mps 736 mmHg 67%
    11:00 +4°C° 0 mm 6 mps 736 mmHg 63%
    12:00 +4°C° 0 mm 6 mps 735 mmHg 58%
    13:00 +5°C° 0 mm 6 mps 735 mmHg 53%
    14:00 +5°C° 0.1 mm 6 mps 735 mmHg 54%
    15:00 +5°C° 0.1 mm 6 mps 735 mmHg 54%
    16:00 +4°C° 0.1 mm 6 mps 735 mmHg 55%
    17:00 +3°C° 0.1 mm 5 mps 736 mmHg 59%
    18:00 +4°C° 0.1 mm 4 mps 736 mmHg 64%
    19:00 +3°C° 0.1 mm 4 mps 736 mmHg 69%
    20:00 +2°C° 0 mm 3 mps 736 mmHg 71%
    21:00 +2°C° 0 mm 3 mps 737 mmHg 73%
    22:00 +1°C° 0 mm 3 mps 737 mmHg 75%
    23:00 +1°C° 0 mm 3 mps 737 mmHg 76%
    Show more